,,,PA_Meas_PMT16A,,PR_Meas_QMR101_102,,RH_Meas_QMH101,,SR_Meas_QMS101,,TA_Meas_QMH101,,GenWind,,GenWind,
date,time,status,PA,status,PR,status,RH,status,SR,status,TA,status,DirAvg,status,SpdAvg,
2011-08-04, 00:00:04,VALID,1010.547,VALID,0.0,VALID,103.954,VALID,0.0,VALID,24.259,VALID,353.0,VALID,0.251,
2011-08-04, 00:01:04,VALID,1010.544,VALID,0.0,VALID,103.985,VALID,0.0,VALID,24.259,VALID,346.0,VALID,0.58,
2011-08-04, 00:02:04,VALID,1010.6,VALID,0.0,VALID,103.97,VALID,0.0,VALID,24.259,VALID,346.0,VALID,0.326,
2011-08-04, 00:03:04,VALID,1010.593,VALID,0.0,VALID,104.0,VALID,0.0,VALID,24.259,VALID,346.0,VALID,0.62,
2011-08-04, 00:04:04,VALID,1010.571,VALID,0.0,VALID,104.0,VALID,0.0,VALID,24.279,VALID,345.0,VALID,0.538,
2011-08-04, 00:05:04,VALID,1010.551,VALID,0.0,VALID,104.0,VALID,0.0,VALID,24.279,VALID,301.0,VALID,0.823,
2011-08-04, 00:06:04,VALID,1010.534,VALID,0.0,VALID,104.0,VALID,0.0,VALID,24.339,VALID,294.0,VALID,0.411,
2011-08-04, 00:07:04,VALID,1010.495,VALID,0.0,VALID,104.0,VALID,0.0,VALID,24.298,VALID,345.0,VALID,0.515,
2011-08-04, 00:08:04,VALID,1010.487,VALID,0.0,VALID,104.0,VALID,0.0,VALID,24.318,VALID,313.0,VALID,0.496,
2011-08-04, 00:09:04,VALID,1010.503,VALID,0.0,VALID,104.0,VALID,0.0,VALID,24.318,VALID,334.0,VALID,0.091,
2011-08-04, 00:10:04,VALID,1010.504,VALID,0.0,VALID,104.0,VALID,0.0,VALID,24.337,VALID,334.0,VALID,0.299,
2011-08-04, 00:11:04,VALID,1010.541,VALID,0.0,VALID,104.0,VALID,0.0,VALID,24.339,VALID,341.0,VALID,0.52,
2011-08-04, 00:12:04,VALID,1010.531,VALID,0.0,VALID,104.0,VALID,0.0,VALID,24.318,VALID,341.0,VALID,0.209,
2011-08-04, 00:13:04,VALID,1010.554,VALID,0.0,VALID,104.0,VALID,0.0,VALID,24.318,VALID,341.0,VALID,0.2,
2011-08-04, 00:14:04,VALID,1010.55,VALID,0.0,VALID,104.0,VALID,0.0,VALID,24.318,VALID,342.0,VALID,0.3,
2011-08-04, 00:15:04,VALID,1010.493,VALID,0.0,VALID,104.0,VALID,0.0,VALID,24.298,VALID,48.0,VALID,0.861,
2011-08-04, 00:16:04,VALID,1010.514,VALID,0.0,VALID,104.0,VALID,0.0,VALID,24.279,VALID,51.0,VALID,0.427,
2011-08-04, 00:17:04,VALID,1010.468,VALID,0.0,VALID,104.0,VALID,0.0,VALID,24.319,VALID,55.0,VALID,0.641,
2011-08-04, 00:18:04,VALID,1010.457,VALID,0.0,VALID,104.0,VALID,0.0,VALID,24.339,VALID,48.0,VALID,0.78,
2011-08-04, 00:19:04,VALID,1010.426,VALID,0.0,VALID,104.0,VALID,0.0,VALID,24.318,VALID,28.0,VALID,1.013,
2011-08-04, 00:20:04,VALID,1010.42,VALID,0.0,VALID,103.962,VALID,0.0,VALID,24.339,VALID,38.0,VALID,0.884,
2011-08-04, 00:21:04,VALID,1010.38,VALID,0.0,VALID,103.962,VALID,0.0,VALID,24.298,VALID,29.0,VALID,1.124,
2011-08-04, 00:22:04,VALID,1010.342,VALID,0.0,VALID,103.909,VALID,0.0,VALID,24.298,VALID,39.0,VALID,0.793,
2011-08-04, 00:23:04,VALID,1010.294,VALID,0.0,VALID,103.954,VALID,0.0,VALID,24.279,VALID,39.0,VALID,0.651,
2011-08-04, 00:24:04,VALID,1010.223,VALID,0.0,VALID,104.0,VALID,0.0,VALID,24.298,VALID,36.0,VALID,0.924,
2011-08-04, 00:25:04,VALID,1010.22,VALID,0.0,VALID,104.0,VALID,0.0,VALID,24.279,VALID,32.0,VALID,1.055,
2011-08-04, 00:26:04,VALID,1010.173,VALID,0.0,VALID,104.0,VALID,0.0,VALID,24.279,VALID,34.0,VALID,1.016,
2011-08-04, 00:27:04,VALID,1010.161,VALID,0.0,VALID,104.0,VALID,0.0,VALID,24.259,VALID,41.0,VALID,0.859,
2011-08-04, 00:28:04,VALID,1010.179,VALID,0.0,VALID,104.0,VALID,0.0,VALID,24.24,VALID,27.0,VALID,0.543,
2011-08-04, 00:29:04,VALID,1010.16,VALID,0.0,VALID,104.0,VALID,0.0,VALID,24.261,VALID,55.0,VALID,0.562,
2011-08-04, 00:30:04,VALID,1010.208,VALID,0.0,VALID,104.0,VALID,0.0,VALID,24.22,VALID,44.0,VALID,0.631,
2011-08-04, 00:31:04,VALID,1010.223,VALID,0.0,VALID,104.0,VALID,0.0,VALID,24.24,VALID,42.0,VALID,0.593,
2011-08-04, 00:32:04,VALID,1010.237,VALID,0.0,VALID,104.0,VALID,0.0,VALID,24.22,VALID,61.0,VALID,1.195,
2011-08-04, 00:33:04,VALID,1010.202,VALID,0.0,VALID,104.0,VALID,0.0,VALID,24.201,VALID,48.0,VALID,0.768,
2011-08-04, 00:34:04,VALID,1010.193,VALID,0.0,VALID,104.0,VALID,0.0,VALID,24.201,VALID,49.0,VALID,0.579,
2011-08-04, 00:35:04,VALID,1010.209,VALID,0.0,VALID,104.0,VALID,0.0,VALID,24.201,VALID,41.0,VALID,1.044,
2011-08-04, 00:36:04,VALID,1010.242,VALID,0.0,VALID,104.0,VALID,0.0,VALID,24.201,VALID,41.0,VALID,0.834,
2011-08-04, 00:37:04,VALID,1010.315,VALID,0.0,VALID,104.0,VALID,0.0,VALID,24.181,VALID,64.0,VALID,0.74,
2011-08-04, 00:38:04,VALID,1010.336,VALID,0.0,VALID,104.0,VALID,0.0,VALID,24.181,VALID,40.0,VALID,0.59,
2011-08-04, 00:39:04,VALID,1010.377,VALID,0.0,VALID,104.0,VALID,0.0,VALID,24.181,VALID,34.0,VALID,1.286,
2011-08-04, 00:40:04,VALID,1010.422,VALID,0.0,VALID,104.0,VALID,0.0,VALID,24.181,VALID,27.0,VALID,0.5,
2011-08-04, 00:41:04,VALID,1010.44,VALID,0.0,VALID,104.0,VALID,0.0,VALID,24.222,VALID,27.0,VALID,0.46,
2011-08-04, 00:42:04,VALID,1010.422,VALID,0.0,VALID,104.0,VALID,0.0,VALID,24.201,VALID,31.0,VALID,0.715,
2011-08-04, 00:43:04,VALID,1010.399,VALID,0.0,VALID,104.0,VALID,0.0,VALID,24.201,VALID,59.0,VALID,0.9,
2011-08-04, 00:44:04,VALID,1010.389,VALID,0.0,VALID,104.0,VALID,0.0,VALID,24.222,VALID,41.0,VALID,1.053,
2011-08-04, 00:45:04,VALID,1010.381,VALID,0.0,VALID,103.886,VALID,0.0,VALID,24.201,VALID,40.0,VALID,1.019,
2011-08-04, 00:46:04,VALID,1010.345,VALID,0.0,VALID,103.886,VALID,0.0,VALID,24.22,VALID,52.0,VALID,0.766,
2011-08-04, 00:47:04,VALID,1010.342,VALID,0.0,VALID,103.802,VALID,0.0,VALID,24.22,VALID,33.0,VALID,0.886,
2011-08-04, 00:48:04,VALID,1010.327,VALID,0.0,VALID,103.703,VALID,0.0,VALID,24.201,VALID,43.0,VALID,1.023,
2011-08-04, 00:49:04,VALID,1010.312,VALID,0.0,VALID,103.687,VALID,0.0,VALID,24.22,VALID,54.0,VALID,0.848,
2011-08-04, 00:50:04,VALID,1010.309,VALID,0.0,VALID,103.741,VALID,0.0,VALID,24.24,VALID,67.0,VALID,0.845,
2011-08-04, 00:51:04,VALID,1010.261,VALID,0.0,VALID,103.855,VALID,0.0,VALID,24.24,VALID,56.0,VALID,1.164,
2011-08-04, 00:52:04,VALID,1010.249,VALID,0.0,VALID,103.939,VALID,0.0,VALID,24.259,VALID,69.0,VALID,1.054,
2011-08-04, 00:53:04,VALID,1010.236,VALID,0.0,VALID,104.0,VALID,0.0,VALID,24.259,VALID,58.0,VALID,0.636,
2011-08-04, 00:54:04,VALID,1010.202,VALID,0.0,VALID,104.0,VALID,0.0,VALID,24.259,VALID,55.0,VALID,0.935,
2011-08-04, 00:55:04,VALID,1010.192,VALID,0.0,VALID,103.992,VALID,0.0,VALID,24.259,VALID,33.0,VALID,0.684,
2011-08-04, 00:56:04,VALID,1010.214,VALID,0.5,VALID,103.977,VALID,0.0,VALID,24.22,VALID,39.0,VALID,1.267,
2011-08-04, 00:57:04,VALID,1010.2,VALID,0.0,VALID,103.962,VALID,0.0,VALID,24.181,VALID,44.0,VALID,1.454,
2011-08-04, 00:58:04,VALID,1010.216,VALID,0.0,VALID,104.0,VALID,0.0,VALID,24.181,VALID,54.0,VALID,0.718,
2011-08-04, 00:59:04,VALID,1010.214,VALID,0.0,VALID,104.0,VALID,0.0,VALID,24.181,VALID,11.0,VALID,1.309,
2011-08-04, 01:00:04,VALID,1010.195,VALID,0.0,VALID,104.0,VALID,0.0,VALID,24.162,VALID,15.0,VALID,0.65,
2011-08-04, 01:01:04,VALID,1010.174,VALID,0.0,VALID,104.0,VALID,0.0,VALID,24.142,VALID,327.0,VALID,0.988,
2011-08-04, 01:02:04,VALID,1010.152,VALID,0.0,VALID,104.0,VALID,0.0,VALID,24.123,VALID,326.0,VALID,1.059,
2011-08-04, 01:03:04,VALID,1010.137,VALID,0.0,VALID,104.0,VALID,0.0,VALID,24.144,VALID,349.0,VALID,0.831,
2011-08-04, 01:04:04,VALID,1010.085,VALID,0.0,VALID,104.0,VALID,0.0,VALID,24.125,VALID,3.0,VALID,1.117,
2011-08-04, 01:05:04,VALID,1010.065,VALID,0.0,VALID,104.0,VALID,0.0,VALID,24.103,VALID,30.0,VALID,0.557,
2011-08-04, 01:06:04,VALID,1010.043,VALID,0.0,VALID,104.0,VALID,0.0,VALID,24.084,VALID,44.0,VALID,0.959,
2011-08-04, 01:07:04,VALID,1010.053,VALID,0.0,VALID,104.0,VALID,0.0,VALID,24.084,VALID,47.0,VALID,1.408,
2011-08-04, 01:08:04,VALID,1010.035,VALID,0.0,VALID,104.0,VALID,0.0,VALID,24.086,VALID,28.0,VALID,1.332,
2011-08-04, 01:09:04,VALID,1010.093,VALID,0.0,VALID,104.0,VALID,0.0,VALID,24.064,VALID,55.0,VALID,0.689,
2011-08-04, 01:10:04,VALID,1010.133,VALID,0.0,VALID,104.0,VALID,0.0,VALID,24.045,VALID,40.0,VALID,1.258,
2011-08-04, 01:11:04,VALID,1010.174,VALID,0.0,VALID,104.0,VALID,0.0,VALID,24.045,VALID,35.0,VALID,1.055,
2011-08-04, 01:12:04,VALID,1010.189,VALID,0.0,VALID,104.0,VALID,0.0,VALID,24.045,VALID,64.0,VALID,0.413,
2011-08-04, 01:13:04,VALID,1010.21,VALID,0.0,VALID,104.0,VALID,0.0,VALID,24.045,VALID,48.0,VALID,0.538,
2011-08-04, 01:14:04,VALID,1010.239,VALID,0.0,VALID,104.0,VALID,0.0,VALID,24.025,VALID,74.0,VALID,0.687,
2011-08-04, 01:15:04,VALID,1010.252,VALID,0.0,VALID,104.0,VALID,0.0,VALID,24.025,VALID,60.0,VALID,0.335,
2011-08-04, 01:16:04,VALID,1010.269,VALID,0.0,VALID,104.0,VALID,0.0,VALID,24.027,VALID,92.0,VALID,0.827,
2011-08-04, 01:17:04,VALID,1010.28,VALID,0.0,VALID,104.0,VALID,0.0,VALID,24.045,VALID,30.0,VALID,0.718,
2011-08-04, 01:18:04,VALID,1010.3,VALID,0.0,VALID,104.0,VALID,0.0,VALID,24.006,VALID,33.0,VALID,0.847,
2011-08-04, 01:19:04,VALID,1010.303,VALID,0.0,VALID,104.0,VALID,0.0,VALID,24.006,VALID,41.0,VALID,0.675,
2011-08-04, 01:20:04,VALID,1010.298,VALID,0.0,VALID,104.0,VALID,0.0,VALID,24.006,VALID,51.0,VALID,0.662,
2011-08-04, 01:21:04,VALID,1010.315,VALID,0.0,VALID,104.0,VALID,0.0,VALID,23.986,VALID,68.0,VALID,0.558,
2011-08-04, 01:22:04,VALID,1010.323,VALID,0.0,VALID,104.0,VALID,0.0,VALID,24.006,VALID,183.0,VALID,0.727,
2011-08-04, 01:23:04,VALID,1010.305,VALID,0.0,VALID,104.0,VALID,0.0,VALID,24.006,VALID,208.0,VALID,0.518,
2011-08-04, 01:24:04,VALID,1010.304,VALID,0.0,VALID,104.0,VALID,0.0,VALID,24.027,VALID,175.0,VALID,0.644,
2011-08-04, 01:25:04,VALID,1010.334,VALID,0.0,VALID,104.0,VALID,0.0,VALID,24.025,VALID,149.0,VALID,1.044,
2011-08-04, 01:26:04,VALID,1010.34,VALID,0.5,VALID,104.0,VALID,0.0,VALID,24.025,VALID,146.0,VALID,1.172,
2011-08-04, 01:27:04,VALID,1010.355,VALID,0.0,VALID,104.0,VALID,0.0,VALID,24.025,VALID,149.0,VALID,1.447,
2011-08-04, 01:28:04,VALID,1010.391,VALID,0.0,VALID,104.0,VALID,0.0,VALID,24.047,VALID,140.0,VALID,1.322,
2011-08-04, 01:29:04,VALID,1010.445,VALID,0.0,VALID,104.0,VALID,0.0,VALID,24.025,VALID,137.0,VALID,1.142,
2011-08-04, 01:30:04,VALID,1010.428,VALID,0.0,VALID,104.0,VALID,0.0,VALID,24.025,VALID,135.0,VALID,1.6,
2011-08-04, 01:31:04,VALID,1010.432,VALID,0.0,VALID,104.0,VALID,0.0,VALID,23.986,VALID,138.0,VALID,1.404,
2011-08-04, 01:32:04,VALID,1010.441,VALID,0.0,VALID,104.0,VALID,0.0,VALID,24.006,VALID,122.0,VALID,1.406,
2011-08-04, 01:33:04,VALID,1010.46,VALID,0.0,VALID,104.0,VALID,0.0,VALID,23.986,VALID,116.0,VALID,1.329,
2011-08-04, 01:34:04,VALID,1010.497,VALID,0.0,VALID,104.0,VALID,0.0,VALID,23.986,VALID,136.0,VALID,0.752,
2011-08-04, 01:35:04,VALID,1010.505,VALID,0.0,VALID,104.0,VALID,0.0,VALID,24.006,VALID,137.0,VALID,0.529,
2011-08-04, 01:36:04,VALID,1010.527,VALID,0.0,VALID,104.0,VALID,0.0,VALID,24.025,VALID,108.0,VALID,0.445,
2011-08-04, 01:37:04,VALID,1010.572,VALID,0.0,VALID,104.0,VALID,0.106,VALID,24.006,VALID,119.0,VALID,0.755,
2011-08-04, 01:38:04,VALID,1010.542,VALID,0.0,VALID,104.0,VALID,0.0,VALID,23.986,VALID,119.0,VALID,0.429,
2011-08-04, 01:39:04,VALID,1010.514,VALID,0.0,VALID,104.0,VALID,0.0,VALID,24.025,VALID,177.0,VALID,1.081,
2011-08-04, 01:40:04,VALID,1010.528,VALID,0.0,VALID,104.0,VALID,0.0,VALID,24.006,VALID,184.0,VALID,0.718,
2011-08-04, 01:41:04,VALID,1010.529,VALID,0.0,VALID,104.0,VALID,0.0,VALID,24.045,VALID,199.0,VALID,0.399,
2011-08-04, 01:42:04,VALID,1010.517,VALID,0.0,VALID,104.0,VALID,0.106,VALID,24.064,VALID,207.0,VALID,0.949,
2011-08-04, 01:43:04,VALID,1010.553,VALID,0.0,VALID,104.0,VALID,0.0,VALID,24.062,VALID,201.0,VALID,0.867,
2011-08-04, 01:44:04,VALID,1010.538,VALID,0.0,VALID,104.0,VALID,0.0,VALID,24.064,VALID,204.0,VALID,1.309,
2011-08-04, 01:45:04,VALID,1010.532,VALID,0.0,VALID,104.0,VALID,0.0,VALID,24.023,VALID,192.0,VALID,1.274,
2011-08-04, 01:46:04,VALID,1010.518,VALID,0.0,VALID,104.0,VALID,0.0,VALID,24.064,VALID,196.0,VALID,1.166,
2011-08-04, 01:47:04,VALID,1010.487,VALID,0.0,VALID,104.0,VALID,0.0,VALID,24.025,VALID,175.0,VALID,1.378,
2011-08-04, 01:48:04,VALID,1010.409,VALID,0.0,VALID,104.0,VALID,0.0,VALID,24.004,VALID,168.0,VALID,1.102,
2011-08-04, 01:49:04,VALID,1010.412,VALID,0.0,VALID,104.0,VALID,0.0,VALID,24.006,VALID,167.0,VALID,1.973,
2011-08-04, 01:50:04,VALID,1010.376,VALID,0.5,VALID,104.0,VALID,0.0,VALID,24.004,VALID,141.0,VALID,1.353,
2011-08-04, 01:51:04,VALID,1010.374,VALID,0.0,VALID,104.0,VALID,0.0,VALID,24.025,VALID,144.0,VALID,0.89,
2011-08-04, 01:52:04,VALID,1010.361,VALID,0.0,VALID,104.0,VALID,0.0,VALID,24.006,VALID,168.0,VALID,0.752,
2011-08-04, 01:53:04,VALID,1010.351,VALID,0.0,VALID,104.0,VALID,0.0,VALID,24.006,VALID,185.0,VALID,0.593,
2011-08-04, 01:54:04,VALID,1010.328,VALID,0.0,VALID,104.0,VALID,0.0,VALID,24.006,VALID,157.0,VALID,1.361,
2011-08-04, 01:55:04,VALID,1010.297,VALID,0.0,VALID,104.0,VALID,0.0,VALID,23.986,VALID,128.0,VALID,0.894,
2011-08-04, 01:56:04,VALID,1010.25,VALID,0.0,VALID,104.0,VALID,0.0,VALID,23.967,VALID,148.0,VALID,1.063,
2011-08-04, 01:57:04,VALID,1010.218,VALID,0.0,VALID,104.0,VALID,0.0,VALID,23.967,VALID,100.0,VALID,0.905,
2011-08-04, 01:58:04,VALID,1010.197,VALID,0.5,VALID,104.0,VALID,0.0,VALID,23.967,VALID,81.0,VALID,1.068,
2011-08-04, 01:59:04,VALID,1010.15,VALID,0.0,VALID,104.0,VALID,0.0,VALID,23.947,VALID,128.0,VALID,0.993,
2011-08-04, 02:00:04,VALID,1010.06,VALID,0.0,VALID,104.0,VALID,0.0,VALID,23.947,VALID,64.0,VALID,1.355,
2011-08-04, 02:01:04,VALID,1009.998,VALID,0.0,VALID,104.0,VALID,0.0,VALID,23.986,VALID,51.0,VALID,1.279,
2011-08-04, 02:02:04,VALID,1009.959,VALID,0.0,VALID,104.0,VALID,0.0,VALID,23.967,VALID,61.0,VALID,1.237,
2011-08-04, 02:03:04,VALID,1009.945,VALID,0.0,VALID,104.0,VALID,0.0,VALID,23.986,VALID,44.0,VALID,1.073,
2011-08-04, 02:04:04,VALID,1009.925,VALID,0.0,VALID,104.0,VALID,0.0,VALID,23.947,VALID,37.0,VALID,1.305,
2011-08-04, 02:05:04,VALID,1009.929,VALID,0.0,VALID,104.0,VALID,0.0,VALID,23.947,VALID,30.0,VALID,0.793,
2011-08-04, 02:06:04,VALID,1009.932,VALID,0.0,VALID,104.0,VALID,0.0,VALID,23.928,VALID,67.0,VALID,1.257,
2011-08-04, 02:07:04,VALID,1009.97,VALID,0.5,VALID,103.939,VALID,0.0,VALID,23.967,VALID,78.0,VALID,1.666,
2011-08-04, 02:08:04,VALID,1009.995,VALID,0.0,VALID,103.756,VALID,0.0,VALID,23.986,VALID,83.0,VALID,1.374,
2011-08-04, 02:09:04,VALID,1009.986,VALID,0.0,VALID,103.596,VALID,0.0,VALID,24.025,VALID,70.0,VALID,0.996,
2011-08-04, 02:10:04,VALID,1009.986,VALID,0.0,VALID,103.565,VALID,0.0,VALID,24.045,VALID,58.0,VALID,1.12,
2011-08-04, 02:11:04,VALID,1010.015,VALID,0.0,VALID,103.359,VALID,0.0,VALID,24.025,VALID,53.0,VALID,1.158,
2011-08-04, 02:12:04,VALID,1010.05,VALID,0.0,VALID,103.291,VALID,0.0,VALID,24.025,VALID,33.0,VALID,0.561,
2011-08-04, 02:13:04,VALID,1010.101,VALID,0.0,VALID,103.375,VALID,0.0,VALID,24.045,VALID,34.0,VALID,0.549,
2011-08-04, 02:14:04,VALID,1010.141,VALID,0.0,VALID,103.542,VALID,0.0,VALID,24.025,VALID,42.0,VALID,0.466,
2011-08-04, 02:15:04,VALID,1010.132,VALID,0.0,VALID,103.565,VALID,0.0,VALID,23.984,VALID,91.0,VALID,1.804,
2011-08-04, 02:16:04,VALID,1010.08,VALID,0.0,VALID,103.298,VALID,0.0,VALID,23.984,VALID,79.0,VALID,1.359,
2011-08-04, 02:17:04,VALID,1010.034,VALID,0.0,VALID,103.169,VALID,0.0,VALID,24.045,VALID,86.0,VALID,1.391,
2011-08-04, 02:18:04,VALID,1010.018,VALID,0.0,VALID,103.062,VALID,0.106,VALID,24.062,VALID,88.0,VALID,1.026,
2011-08-04, 02:19:04,VALID,1010.032,VALID,0.0,VALID,103.306,VALID,0.0,VALID,24.144,VALID,104.0,VALID,1.207,
2011-08-04, 02:20:04,VALID,1009.96,VALID,0.0,VALID,103.398,VALID,0.0,VALID,24.103,VALID,115.0,VALID,1.405,
2011-08-04, 02:21:04,VALID,1009.936,VALID,0.0,VALID,103.527,VALID,0.0,VALID,24.084,VALID,72.0,VALID,1.291,
2011-08-04, 02:22:04,VALID,1009.88,VALID,0.5,VALID,103.428,VALID,0.0,VALID,24.064,VALID,76.0,VALID,1.699,
2011-08-04, 02:23:04,VALID,1009.832,VALID,0.0,VALID,103.245,VALID,0.0,VALID,24.045,VALID,83.0,VALID,1.38,
2011-08-04, 02:24:04,VALID,1009.826,VALID,0.0,VALID,103.253,VALID,0.106,VALID,24.025,VALID,24.0,VALID,0.965,
2011-08-04, 02:25:04,VALID,1009.795,VALID,0.0,VALID,103.283,VALID,0.0,VALID,24.006,VALID,85.0,VALID,0.724,
2011-08-04, 02:26:04,VALID,1009.798,VALID,0.0,VALID,103.405,VALID,0.0,VALID,23.986,VALID,85.0,VALID,0.241,
2011-08-04, 02:27:04,VALID,1009.804,VALID,0.0,VALID,103.512,VALID,0.0,VALID,23.967,VALID,357.0,VALID,0.866,
2011-08-04, 02:28:04,VALID,1009.831,VALID,0.0,VALID,103.634,VALID,0.106,VALID,23.947,VALID,355.0,VALID,0.073,
2011-08-04, 02:29:04,VALID,1009.834,VALID,0.0,VALID,103.825,VALID,0.0,VALID,23.928,VALID,355.0,VALID,0.42,
2011-08-04, 02:30:04,VALID,1009.804,VALID,0.0,VALID,104.0,VALID,0.0,VALID,23.928,VALID,355.0,VALID,0.437,
2011-08-04, 02:31:04,VALID,1009.767,VALID,0.0,VALID,104.0,VALID,0.0,VALID,23.907,VALID,355.0,VALID,0.401,
2011-08-04, 02:32:04,VALID,1009.767,VALID,0.0,VALID,104.0,VALID,0.0,VALID,23.908,VALID,355.0,VALID,0.504,
2011-08-04, 02:33:04,VALID,1009.776,VALID,0.0,VALID,104.0,VALID,0.0,VALID,23.848,VALID,355.0,VALID,0.189,
2011-08-04, 02:34:04,VALID,1009.809,VALID,0.0,VALID,104.0,VALID,0.0,VALID,23.85,VALID,355.0,VALID,0.152,
2011-08-04, 02:35:04,VALID,1009.814,VALID,0.0,VALID,104.0,VALID,0.0,VALID,23.83,VALID,355.0,VALID,0.174,
2011-08-04, 02:36:04,VALID,1009.815,VALID,0.0,VALID,104.0,VALID,0.0,VALID,23.85,VALID,355.0,VALID,0.405,
2011-08-04, 02:37:04,VALID,1009.792,VALID,0.0,VALID,104.0,VALID,0.0,VALID,23.83,VALID,355.0,VALID,0.528,
2011-08-04, 02:38:04,VALID,1009.802,VALID,0.0,VALID,104.0,VALID,0.0,VALID,23.809,VALID,355.0,VALID,0.352,
2011-08-04, 02:39:04,VALID,1009.774,VALID,0.0,VALID,104.0,VALID,0.0,VALID,23.83,VALID,355.0,VALID,0.258,
2011-08-04, 02:40:04,VALID,1009.736,VALID,0.0,VALID,104.0,VALID,0.0,VALID,23.83,VALID,355.0,VALID,0.202,
2011-08-04, 02:41:04,VALID,1009.721,VALID,0.0,VALID,104.0,VALID,0.0,VALID,23.811,VALID,355.0,VALID,0.374,
2011-08-04, 02:42:04,VALID,1009.67,VALID,0.0,VALID,104.0,VALID,0.0,VALID,23.811,VALID,355.0,VALID,0.695,
2011-08-04, 02:43:04,VALID,1009.647,VALID,0.0,VALID,104.0,VALID,0.0,VALID,23.772,VALID,355.0,VALID,0.734,
2011-08-04, 02:44:04,VALID,1009.604,VALID,0.0,VALID,104.0,VALID,0.0,VALID,23.772,VALID,348.0,VALID,0.585,
2011-08-04, 02:45:04,VALID,1009.565,VALID,0.0,VALID,104.0,VALID,0.0,VALID,23.772,VALID,314.0,VALID,0.727,
2011-08-04, 02:46:04,VALID,1009.538,VALID,0.0,VALID,104.0,VALID,0.0,VALID,23.733,VALID,313.0,VALID,0.82,
2011-08-04, 02:47:04,VALID,1009.516,VALID,0.0,VALID,104.0,VALID,0.0,VALID,23.713,VALID,313.0,VALID,0.803,
2011-08-04, 02:48:04,VALID,1009.545,VALID,0.5,VALID,104.0,VALID,0.106,VALID,23.713,VALID,313.0,VALID,0.512,
2011-08-04, 02:49:04,VALID,1009.563,VALID,0.0,VALID,104.0,VALID,0.0,VALID,23.735,VALID,313.0,VALID,0.237,
2011-08-04, 02:50:04,VALID,1009.589,VALID,0.0,VALID,104.0,VALID,0.0,VALID,23.713,VALID,313.0,VALID,0.077,
2011-08-04, 02:51:04,VALID,1009.61,VALID,0.0,VALID,104.0,VALID,0.0,VALID,23.715,VALID,313.0,VALID,0.244,
2011-08-04, 02:52:04,VALID,1009.638,VALID,0.0,VALID,104.0,VALID,0.0,VALID,23.713,VALID,313.0,VALID,0.216,
2011-08-04, 02:53:04,VALID,1009.638,VALID,0.0,VALID,104.0,VALID,0.0,VALID,23.715,VALID,313.0,VALID,0.0,
2011-08-04, 02:54:04,VALID,1009.638,VALID,0.0,VALID,104.0,VALID,0.0,VALID,23.713,VALID,313.0,VALID,0.194,
2011-08-04, 02:55:04,VALID,1009.657,VALID,0.0,VALID,104.0,VALID,0.0,VALID,23.713,VALID,313.0,VALID,0.243,
2011-08-04, 02:56:04,VALID,1009.634,VALID,0.0,VALID,104.0,VALID,0.0,VALID,23.694,VALID,313.0,VALID,0.235,
2011-08-04, 02:57:04,VALID,1009.629,VALID,0.0,VALID,104.0,VALID,0.0,VALID,23.694,VALID,313.0,VALID,0.448,
2011-08-04, 02:58:04,VALID,1009.608,VALID,0.0,VALID,104.0,VALID,0.0,VALID,23.694,VALID,313.0,VALID,0.455,
2011-08-04, 02:59:04,VALID,1009.599,VALID,0.0,VALID,104.0,VALID,0.0,VALID,23.713,VALID,313.0,VALID,0.34,
2011-08-04, 03:00:04,VALID,1009.62,VALID,0.0,VALID,104.0,VALID,0.0,VALID,23.713,VALID,313.0,VALID,0.52,
2011-08-04, 03:01:04,VALID,1009.594,VALID,0.0,VALID,104.0,VALID,0.0,VALID,23.733,VALID,313.0,VALID,0.534,
2011-08-04, 03:02:04,VALID,1009.575,VALID,0.0,VALID,104.0,VALID,0.0,VALID,23.752,VALID,313.0,VALID,0.516,
2011-08-04, 03:03:04,VALID,1009.553,VALID,0.0,VALID,104.0,VALID,0.106,VALID,23.752,VALID,313.0,VALID,0.286,
2011-08-04, 03:04:04,VALID,1009.526,VALID,0.0,VALID,104.0,VALID,0.106,VALID,23.752,VALID,313.0,VALID,0.302,
2011-08-04, 03:05:04,VALID,1009.509,VALID,0.0,VALID,104.0,VALID,0.106,VALID,23.752,VALID,313.0,VALID,0.459,
2011-08-04, 03:06:04,VALID,1009.492,VALID,0.0,VALID,104.0,VALID,0.0,VALID,23.752,VALID,313.0,VALID,0.34,
2011-08-04, 03:07:04,VALID,1009.5,VALID,0.0,VALID,104.0,VALID,0.106,VALID,23.772,VALID,313.0,VALID,0.225,
2011-08-04, 03:08:04,VALID,1009.468,VALID,0.0,VALID,104.0,VALID,0.106,VALID,23.772,VALID,313.0,VALID,0.52,
2011-08-04, 03:09:04,VALID,1009.412,VALID,0.0,VALID,104.0,VALID,0.106,VALID,23.751,VALID,326.0,VALID,0.404,
2011-08-04, 03:10:04,VALID,1009.407,VALID,0.0,VALID,104.0,VALID,0.0,VALID,23.752,VALID,326.0,VALID,0.343,
2011-08-04, 03:11:04,VALID,1009.392,VALID,0.0,VALID,104.0,VALID,0.0,VALID,23.752,VALID,326.0,VALID,0.048,
2011-08-04, 03:12:04,VALID,1009.398,VALID,0.0,VALID,104.0,VALID,0.106,VALID,23.752,VALID,326.0,VALID,0.114,
2011-08-04, 03:13:04,VALID,1009.429,VALID,0.0,VALID,104.0,VALID,0.0,VALID,23.731,VALID,326.0,VALID,0.672,
2011-08-04, 03:14:04,VALID,1009.414,VALID,0.0,VALID,104.0,VALID,0.0,VALID,23.752,VALID,326.0,VALID,0.811,
2011-08-04, 03:15:04,VALID,1009.413,VALID,0.0,VALID,104.0,VALID,0.0,VALID,23.752,VALID,167.0,VALID,0.744,
2011-08-04, 03:16:04,VALID,1009.445,VALID,0.0,VALID,104.0,VALID,0.0,VALID,23.752,VALID,167.0,VALID,0.524,
2011-08-04, 03:17:04,VALID,1009.483,VALID,0.0,VALID,104.0,VALID,0.0,VALID,23.772,VALID,167.0,VALID,0.496,
2011-08-04, 03:18:04,VALID,1009.507,VALID,0.0,VALID,104.0,VALID,0.0,VALID,23.733,VALID,167.0,VALID,0.761,
2011-08-04, 03:19:04,VALID,1009.535,VALID,0.0,VALID,104.0,VALID,0.0,VALID,23.752,VALID,167.0,VALID,0.733,
2011-08-04, 03:20:04,VALID,1009.582,VALID,0.0,VALID,104.0,VALID,0.0,VALID,23.733,VALID,167.0,VALID,0.537,
2011-08-04, 03:21:04,VALID,1009.588,VALID,0.0,VALID,104.0,VALID,0.0,VALID,23.733,VALID,167.0,VALID,0.575,
2011-08-04, 03:22:04,VALID,1009.578,VALID,0.0,VALID,104.0,VALID,0.0,VALID,23.733,VALID,167.0,VALID,0.338,
2011-08-04, 03:23:04,VALID,1009.564,VALID,0.0,VALID,104.0,VALID,0.0,VALID,23.713,VALID,167.0,VALID,0.438,
2011-08-04, 03:24:04,VALID,1009.559,VALID,0.0,VALID,104.0,VALID,0.0,VALID,23.733,VALID,167.0,VALID,0.306,
2011-08-04, 03:25:04,VALID,1009.564,VALID,0.0,VALID,104.0,VALID,0.0,VALID,23.754,VALID,167.0,VALID,0.128,
2011-08-04, 03:26:04,VALID,1009.576,VALID,0.0,VALID,104.0,VALID,0.0,VALID,23.733,VALID,167.0,VALID,0.263,
2011-08-04, 03:27:04,VALID,1009.579,VALID,0.0,VALID,104.0,VALID,0.0,VALID,23.752,VALID,167.0,VALID,0.339,
2011-08-04, 03:28:04,VALID,1009.552,VALID,0.0,VALID,104.0,VALID,0.0,VALID,23.752,VALID,167.0,VALID,0.431,
2011-08-04, 03:29:04,VALID,1009.547,VALID,0.0,VALID,104.0,VALID,0.0,VALID,23.733,VALID,167.0,VALID,0.359,
2011-08-04, 03:30:04,VALID,1009.533,VALID,0.0,VALID,104.0,VALID,0.0,VALID,23.733,VALID,167.0,VALID,0.27,
2011-08-04, 03:31:04,VALID,1009.503,VALID,0.0,VALID,104.0,VALID,0.0,VALID,23.733,VALID,167.0,VALID,0.155,
2011-08-04, 03:32:04,VALID,1009.482,VALID,0.0,VALID,104.0,VALID,0.0,VALID,23.733,VALID,167.0,VALID,0.1,
2011-08-04, 03:33:04,VALID,1009.516,VALID,0.0,VALID,104.0,VALID,0.106,VALID,23.752,VALID,167.0,VALID,0.138,
2011-08-04, 03:34:04,VALID,1009.522,VALID,0.0,VALID,104.0,VALID,0.0,VALID,23.733,VALID,167.0,VALID,0.408,
2011-08-04, 03:35:04,VALID,1009.551,VALID,0.0,VALID,104.0,VALID,0.0,VALID,23.752,VALID,145.0,VALID,0.704,
2011-08-04, 03:36:04,VALID,1009.548,VALID,0.0,VALID,104.0,VALID,0.0,VALID,23.733,VALID,125.0,VALID,0.808,
2011-08-04, 03:37:04,VALID,1009.582,VALID,0.0,VALID,104.0,VALID,0.106,VALID,23.752,VALID,99.0,VALID,0.938,
2011-08-04, 03:38:04,VALID,1009.584,VALID,0.0,VALID,104.0,VALID,0.0,VALID,23.731,VALID,100.0,VALID,0.674,
2011-08-04, 03:39:04,VALID,1009.598,VALID,0.0,VALID,104.0,VALID,0.0,VALID,23.752,VALID,88.0,VALID,0.712,
2011-08-04, 03:40:04,VALID,1009.602,VALID,0.0,VALID,104.0,VALID,0.106,VALID,23.733,VALID,78.0,VALID,0.902,
2011-08-04, 03:41:04,VALID,1009.607,VALID,0.0,VALID,104.0,VALID,0.106,VALID,23.733,VALID,57.0,VALID,0.745,
2011-08-04, 03:42:04,VALID,1009.631,VALID,0.0,VALID,104.0,VALID,0.0,VALID,23.774,VALID,31.0,VALID,0.575,